Year,Month,Day,Hour,Minute,Value (Times are PST for temperature in C)
2010,07,25,00,00,14.70
2010,07,25,00,01,14.70
2010,07,25,00,02,14.70
2010,07,25,00,03,14.60
2010,07,25,00,04,14.60
2010,07,25,00,05,14.60
2010,07,25,00,06,14.60
2010,07,25,00,07,14.60
2010,07,25,00,08,14.60
2010,07,25,00,09,14.50
2010,07,25,00,10,14.50
2010,07,25,00,11,14.50
2010,07,25,00,12,14.50
2010,07,25,00,13,14.50
2010,07,25,00,14,14.50
2010,07,25,00,15,14.50
2010,07,25,00,16,14.40
2010,07,25,00,17,14.40
2010,07,25,00,18,14.40
2010,07,25,00,19,14.40
2010,07,25,00,20,14.30
2010,07,25,00,21,14.30
2010,07,25,00,22,14.20
2010,07,25,00,23,14.20
2010,07,25,00,24,14.20
2010,07,25,00,25,14.10
2010,07,25,00,26,14.00
2010,07,25,00,27,14.00
2010,07,25,00,28,13.90
2010,07,25,00,29,13.90
2010,07,25,00,30,13.90
2010,07,25,00,31,13.80
2010,07,25,00,32,13.80
2010,07,25,00,33,13.80
2010,07,25,00,34,13.80
2010,07,25,00,35,13.70
2010,07,25,00,36,13.70
2010,07,25,00,37,13.70
2010,07,25,00,38,13.70
2010,07,25,00,39,13.70
2010,07,25,00,40,13.70
2010,07,25,00,41,13.70
2010,07,25,00,42,13.70
2010,07,25,00,43,13.70
2010,07,25,00,44,13.70
2010,07,25,00,45,13.60
2010,07,25,00,46,13.60
2010,07,25,00,47,13.60
2010,07,25,00,48,13.60
2010,07,25,00,49,13.60
2010,07,25,00,50,13.60
2010,07,25,00,51,13.60
2010,07,25,00,52,13.50
2010,07,25,00,53,13.50
2010,07,25,00,54,13.50
2010,07,25,00,55,13.50
2010,07,25,00,56,13.50
2010,07,25,00,57,13.50
2010,07,25,00,58,13.50
2010,07,25,00,59,13.50
2010,07,25,01,00,13.50
2010,07,25,01,01,13.50
2010,07,25,01,02,13.40
2010,07,25,01,03,13.40
2010,07,25,01,04,13.40
2010,07,25,01,05,13.40
2010,07,25,01,06,13.40
2010,07,25,01,07,13.30
2010,07,25,01,08,13.30
2010,07,25,01,09,13.30
2010,07,25,01,10,13.20
2010,07,25,01,11,13.20
2010,07,25,01,12,13.20
2010,07,25,01,13,13.10
2010,07,25,01,14,13.10
2010,07,25,01,15,13.10
2010,07,25,01,16,13.00
2010,07,25,01,17,13.00
2010,07,25,01,18,13.00
2010,07,25,01,19,12.90
2010,07,25,01,20,12.90
2010,07,25,01,21,12.90
2010,07,25,01,22,12.90
2010,07,25,01,23,12.90
2010,07,25,01,24,12.80
2010,07,25,01,25,12.80
2010,07,25,01,26,12.80
2010,07,25,01,27,12.90
2010,07,25,01,28,12.90
2010,07,25,01,29,12.90
2010,07,25,01,30,12.90
2010,07,25,01,31,12.90
2010,07,25,01,32,12.90
2010,07,25,01,33,12.90
2010,07,25,01,34,12.90
2010,07,25,01,35,12.80
2010,07,25,01,36,12.80
2010,07,25,01,37,12.80
2010,07,25,01,38,12.70
2010,07,25,01,39,12.70
2010,07,25,01,40,12.70
2010,07,25,01,41,12.70
2010,07,25,01,42,12.60
2010,07,25,01,43,12.60
2010,07,25,01,44,12.60
2010,07,25,01,45,12.60
2010,07,25,01,46,12.50
2010,07,25,01,47,12.50
2010,07,25,01,48,12.50
2010,07,25,01,49,12.50
2010,07,25,01,50,12.50
2010,07,25,01,51,12.50
2010,07,25,01,52,12.50
2010,07,25,01,53,12.50
2010,07,25,01,54,12.50
2010,07,25,01,55,12.50
2010,07,25,01,56,12.50
2010,07,25,01,57,12.50
2010,07,25,01,58,12.50
2010,07,25,01,59,12.60
2010,07,25,02,00,12.60
2010,07,25,02,01,12.60
2010,07,25,02,02,12.60
2010,07,25,02,03,12.60
2010,07,25,02,04,12.60
2010,07,25,02,05,12.50
2010,07,25,02,06,12.50
2010,07,25,02,07,12.50
2010,07,25,02,08,12.50
2010,07,25,02,09,12.50
2010,07,25,02,10,12.50
2010,07,25,02,11,12.60
2010,07,25,02,12,12.60
2010,07,25,02,13,12.60
2010,07,25,02,14,12.60
2010,07,25,02,15,12.60
2010,07,25,02,16,12.60
2010,07,25,02,17,12.60
2010,07,25,02,18,12.60
2010,07,25,02,19,12.60
2010,07,25,02,20,12.60
2010,07,25,02,21,12.50
2010,07,25,02,22,12.50
2010,07,25,02,23,12.50
2010,07,25,02,24,12.40
2010,07,25,02,25,12.40
2010,07,25,02,26,12.40
2010,07,25,02,27,12.40
2010,07,25,02,28,12.30
2010,07,25,02,29,12.30
2010,07,25,02,30,12.30
2010,07,25,02,31,12.30
2010,07,25,02,32,12.20
2010,07,25,02,33,12.20
2010,07,25,02,34,12.20
2010,07,25,02,35,12.20
2010,07,25,02,36,12.20
2010,07,25,02,37,12.20
2010,07,25,02,38,12.20
2010,07,25,02,39,12.10
2010,07,25,02,40,12.10
2010,07,25,02,41,12.10
2010,07,25,02,42,12.10
2010,07,25,02,43,12.10
2010,07,25,02,44,12.10
2010,07,25,02,45,12.10
2010,07,25,02,46,12.10
2010,07,25,02,47,12.10
2010,07,25,02,48,12.10
2010,07,25,02,49,12.10
2010,07,25,02,50,12.10
2010,07,25,02,51,12.10
2010,07,25,02,52,12.10
2010,07,25,02,53,12.10
2010,07,25,02,54,12.10
2010,07,25,02,55,12.10
2010,07,25,02,56,12.10
2010,07,25,02,57,12.10
2010,07,25,02,58,12.10
2010,07,25,02,59,12.10
2010,07,25,03,00,12.10
2010,07,25,03,01,12.10
2010,07,25,03,02,12.10
2010,07,25,03,03,12.20
2010,07,25,03,04,12.20
2010,07,25,03,05,12.20
2010,07,25,03,06,12.20
2010,07,25,03,07,12.20
2010,07,25,03,08,12.20
2010,07,25,03,09,12.20
2010,07,25,03,10,12.20
2010,07,25,03,11,12.20
2010,07,25,03,12,12.20
2010,07,25,03,13,12.20
2010,07,25,03,14,12.20
2010,07,25,03,15,12.20
2010,07,25,03,16,12.20
2010,07,25,03,17,12.20
2010,07,25,03,18,12.20
2010,07,25,03,19,12.20
2010,07,25,03,20,12.10
2010,07,25,03,21,12.10
2010,07,25,03,22,12.10
2010,07,25,03,23,12.10
2010,07,25,03,24,12.10
2010,07,25,03,25,12.10
2010,07,25,03,26,12.10
2010,07,25,03,27,12.10
2010,07,25,03,28,12.10
2010,07,25,03,29,12.10
2010,07,25,03,30,12.10
2010,07,25,03,31,12.00
2010,07,25,03,32,12.00
2010,07,25,03,33,12.00
2010,07,25,03,34,12.00
2010,07,25,03,35,11.90
2010,07,25,03,36,11.90
2010,07,25,03,37,11.90
2010,07,25,03,38,11.90
2010,07,25,03,39,11.90
2010,07,25,03,40,11.90
2010,07,25,03,41,11.90
2010,07,25,03,42,11.90
2010,07,25,03,43,11.90
2010,07,25,03,44,11.90
2010,07,25,03,45,11.90
2010,07,25,03,46,11.90
2010,07,25,03,47,11.90
2010,07,25,03,48,11.90
2010,07,25,03,49,11.90
2010,07,25,03,50,11.90
2010,07,25,03,51,11.90
2010,07,25,03,52,11.90
2010,07,25,03,53,11.90
2010,07,25,03,54,11.90
2010,07,25,03,55,11.80
2010,07,25,03,56,11.80
2010,07,25,03,57,11.80
2010,07,25,03,58,11.80
2010,07,25,03,59,11.80
2010,07,25,04,00,11.80
2010,07,25,04,01,11.80
2010,07,25,04,02,11.80
2010,07,25,04,03,11.80
2010,07,25,04,04,11.80
2010,07,25,04,05,11.80
2010,07,25,04,06,11.80
2010,07,25,04,07,11.80
2010,07,25,04,08,11.70
2010,07,25,04,09,11.70
2010,07,25,04,10,11.70
2010,07,25,04,11,11.70
2010,07,25,04,12,11.70
2010,07,25,04,13,11.70
2010,07,25,04,14,11.70
2010,07,25,04,15,11.70
2010,07,25,04,16,11.70
2010,07,25,04,17,11.70
2010,07,25,04,18,11.70
2010,07,25,04,19,11.70
2010,07,25,04,20,11.70
2010,07,25,04,21,11.70
2010,07,25,04,22,11.70
2010,07,25,04,23,11.70
2010,07,25,04,24,11.70
2010,07,25,04,25,11.70
2010,07,25,04,26,11.70
2010,07,25,04,27,11.70
2010,07,25,04,28,11.70
2010,07,25,04,29,11.70
2010,07,25,04,30,11.70
2010,07,25,04,31,11.70
2010,07,25,04,32,11.70
2010,07,25,04,33,11.70
2010,07,25,04,34,11.70
2010,07,25,04,35,11.70
2010,07,25,04,36,11.70
2010,07,25,04,37,11.70
2010,07,25,04,38,11.70
2010,07,25,04,39,11.70
2010,07,25,04,40,11.70
2010,07,25,04,41,11.70
2010,07,25,04,42,11.70
2010,07,25,04,43,11.70
2010,07,25,04,44,11.70
2010,07,25,04,45,11.70
2010,07,25,04,46,11.70
2010,07,25,04,47,11.70
2010,07,25,04,48,11.70
2010,07,25,04,49,11.70
2010,07,25,04,50,11.60
2010,07,25,04,51,11.60
2010,07,25,04,52,11.60
2010,07,25,04,53,11.60
2010,07,25,04,54,11.60
2010,07,25,04,55,11.60
2010,07,25,04,56,11.50
2010,07,25,04,57,11.50
2010,07,25,04,58,11.50
2010,07,25,04,59,11.40
2010,07,25,05,00,11.40
2010,07,25,05,01,11.40
2010,07,25,05,02,11.40
2010,07,25,05,03,11.40
2010,07,25,05,04,11.40
2010,07,25,05,05,11.40
2010,07,25,05,06,11.40
2010,07,25,05,07,11.30
2010,07,25,05,08,11.30
2010,07,25,05,09,11.30
2010,07,25,05,10,11.30
2010,07,25,05,11,11.30
2010,07,25,05,12,11.30
2010,07,25,05,13,11.30
2010,07,25,05,14,11.30
2010,07,25,05,15,11.30
2010,07,25,05,16,11.30
2010,07,25,05,17,11.30
2010,07,25,05,18,11.30
2010,07,25,05,19,11.30
2010,07,25,05,20,11.30
2010,07,25,05,21,11.30
2010,07,25,05,22,11.20
2010,07,25,05,23,11.20
2010,07,25,05,24,11.20
2010,07,25,05,25,11.20
2010,07,25,05,26,11.20
2010,07,25,05,27,11.20
2010,07,25,05,28,11.20
2010,07,25,05,29,11.20
2010,07,25,05,30,11.20
2010,07,25,05,31,11.20
2010,07,25,05,32,11.20
2010,07,25,05,33,11.20
2010,07,25,05,34,11.20
2010,07,25,05,35,11.20
2010,07,25,05,36,11.20
2010,07,25,05,37,11.20
2010,07,25,05,38,11.20
2010,07,25,05,39,11.20
2010,07,25,05,40,11.30
2010,07,25,05,41,11.30
2010,07,25,05,42,11.20
2010,07,25,05,43,11.20
2010,07,25,05,44,11.20
2010,07,25,05,45,11.20
2010,07,25,05,46,11.20
2010,07,25,05,47,11.20
2010,07,25,05,48,11.20
2010,07,25,05,49,11.20
2010,07,25,05,50,11.20
2010,07,25,05,51,11.20
2010,07,25,05,52,11.20
2010,07,25,05,53,11.20
2010,07,25,05,54,11.20
2010,07,25,05,55,11.20
2010,07,25,05,56,11.20
2010,07,25,05,57,11.20
2010,07,25,05,58,11.20
2010,07,25,05,59,11.20
2010,07,25,06,00,11.20
2010,07,25,06,01,11.30
2010,07,25,06,02,11.30
2010,07,25,06,03,11.30
2010,07,25,06,04,11.30
2010,07,25,06,05,11.30
2010,07,25,06,06,11.30
2010,07,25,06,07,11.30
2010,07,25,06,08,11.30
2010,07,25,06,09,11.40
2010,07,25,06,10,11.40
2010,07,25,06,11,11.40
2010,07,25,06,12,11.40
2010,07,25,06,13,11.40
2010,07,25,06,14,11.40
2010,07,25,06,15,11.40
2010,07,25,06,16,11.50
2010,07,25,06,17,11.50
2010,07,25,06,18,11.50
2010,07,25,06,19,11.60
2010,07,25,06,20,11.60
2010,07,25,06,21,11.60
2010,07,25,06,22,11.60
2010,07,25,06,23,11.60
2010,07,25,06,24,11.60
2010,07,25,06,25,11.60
2010,07,25,06,26,11.60
2010,07,25,06,27,11.60
2010,07,25,06,28,11.70
2010,07,25,06,29,11.70
2010,07,25,06,30,11.70
2010,07,25,06,31,11.70
2010,07,25,06,32,11.80
2010,07,25,06,33,11.80
2010,07,25,06,34,11.80
2010,07,25,06,35,11.90
2010,07,25,06,36,11.90
2010,07,25,06,37,11.90
2010,07,25,06,38,12.00
2010,07,25,06,39,12.00
2010,07,25,06,40,12.10
2010,07,25,06,41,12.10
2010,07,25,06,42,12.10
2010,07,25,06,43,12.20
2010,07,25,06,44,12.20
2010,07,25,06,45,12.20
2010,07,25,06,46,12.30
2010,07,25,06,47,12.30
2010,07,25,06,48,12.30
2010,07,25,06,49,12.30
2010,07,25,06,50,12.40
2010,07,25,06,51,12.40
2010,07,25,06,52,12.50
2010,07,25,06,53,12.50
2010,07,25,06,54,12.60
2010,07,25,06,55,12.60
2010,07,25,06,56,12.60
2010,07,25,06,57,12.70
2010,07,25,06,58,12.70
2010,07,25,06,59,12.80
2010,07,25,07,00,12.80
2010,07,25,07,01,12.80
2010,07,25,07,02,12.90
2010,07,25,07,03,12.90
2010,07,25,07,04,12.90
2010,07,25,07,05,13.00
2010,07,25,07,06,13.10
2010,07,25,07,07,13.10
2010,07,25,07,08,13.20
2010,07,25,07,09,13.20
2010,07,25,07,10,13.30
2010,07,25,07,11,13.30
2010,07,25,07,12,13.40
2010,07,25,07,13,13.40
2010,07,25,07,14,13.40
2010,07,25,07,15,13.50
2010,07,25,07,16,13.60
2010,07,25,07,17,13.60
2010,07,25,07,18,13.70
2010,07,25,07,19,13.70
2010,07,25,07,20,13.80
2010,07,25,07,21,13.80
2010,07,25,07,22,13.90
2010,07,25,07,23,13.90
2010,07,25,07,24,14.00
2010,07,25,07,25,14.00
2010,07,25,07,26,14.10
2010,07,25,07,27,14.10
2010,07,25,07,28,14.00
2010,07,25,07,29,14.00
2010,07,25,07,30,13.90
2010,07,25,07,31,13.90
2010,07,25,07,32,13.90
2010,07,25,07,33,13.90
2010,07,25,07,34,13.90
2010,07,25,07,35,13.90
2010,07,25,07,36,13.90
2010,07,25,07,37,13.90
2010,07,25,07,38,13.90
2010,07,25,07,39,13.80
2010,07,25,07,40,13.80
2010,07,25,07,41,13.80
2010,07,25,07,42,13.80
2010,07,25,07,43,13.80
2010,07,25,07,44,13.80
2010,07,25,07,45,13.90
2010,07,25,07,46,13.90
2010,07,25,07,47,13.90
2010,07,25,07,48,14.00
2010,07,25,07,49,14.10
2010,07,25,07,50,14.20
2010,07,25,07,51,14.30
2010,07,25,07,52,14.30
2010,07,25,07,53,14.40
2010,07,25,07,54,14.60
2010,07,25,07,55,14.60
2010,07,25,07,56,14.70
2010,07,25,07,57,14.90
2010,07,25,07,58,15.00
2010,07,25,07,59,15.00
2010,07,25,08,00,15.00
2010,07,25,08,01,15.00
2010,07,25,08,02,15.20
2010,07,25,08,03,15.30
2010,07,25,08,04,15.40
2010,07,25,08,05,15.40
2010,07,25,08,06,15.50
2010,07,25,08,07,15.60
2010,07,25,08,08,15.70
2010,07,25,08,09,15.80
2010,07,25,08,10,15.80
2010,07,25,08,11,15.90
2010,07,25,08,12,15.90
2010,07,25,08,13,16.00
2010,07,25,08,14,16.00
2010,07,25,08,15,16.10
2010,07,25,08,16,16.10
2010,07,25,08,17,16.20
2010,07,25,08,18,16.20
2010,07,25,08,19,16.20
2010,07,25,08,20,16.20
2010,07,25,08,21,16.20
2010,07,25,08,22,16.20
2010,07,25,08,23,16.20
2010,07,25,08,24,16.10
2010,07,25,08,25,16.10
2010,07,25,08,26,16.10
2010,07,25,08,27,16.10
2010,07,25,08,28,16.20
2010,07,25,08,29,16.20
2010,07,25,08,30,16.30
2010,07,25,08,31,16.30
2010,07,25,08,32,16.40
2010,07,25,08,33,16.40
2010,07,25,08,34,16.50
2010,07,25,08,35,16.50
2010,07,25,08,36,16.50
2010,07,25,08,37,16.40
2010,07,25,08,38,16.40
2010,07,25,08,39,16.30
2010,07,25,08,40,16.20
2010,07,25,08,41,16.20
2010,07,25,08,42,16.10
2010,07,25,08,43,16.10
2010,07,25,08,44,16.20
2010,07,25,08,45,16.10
2010,07,25,08,46,16.00
2010,07,25,08,47,16.00
2010,07,25,08,48,15.90
2010,07,25,08,49,15.90
2010,07,25,08,50,15.90
2010,07,25,08,51,15.90
2010,07,25,08,52,15.90
2010,07,25,08,53,15.90
2010,07,25,08,54,15.90
2010,07,25,08,55,15.90
2010,07,25,08,56,15.90
2010,07,25,08,57,15.90
2010,07,25,08,58,15.90
2010,07,25,08,59,16.00
2010,07,25,09,00,16.00
2010,07,25,09,01,16.00
2010,07,25,09,02,16.10
2010,07,25,09,03,16.10
2010,07,25,09,04,16.20
2010,07,25,09,05,16.30
2010,07,25,09,06,16.30
2010,07,25,09,07,16.30
2010,07,25,09,08,16.30
2010,07,25,09,09,16.30
2010,07,25,09,10,16.40
2010,07,25,09,11,16.40
2010,07,25,09,12,16.50
2010,07,25,09,13,16.50
2010,07,25,09,14,16.60
2010,07,25,09,15,16.70
2010,07,25,09,16,16.80
2010,07,25,09,17,16.80
2010,07,25,09,18,16.80
2010,07,25,09,19,16.90
2010,07,25,09,20,17.00
2010,07,25,09,21,17.00
2010,07,25,09,22,17.10
2010,07,25,09,23,17.10
2010,07,25,09,24,17.10
2010,07,25,09,25,17.10
2010,07,25,09,26,17.10
2010,07,25,09,27,17.20
2010,07,25,09,28,17.20
2010,07,25,09,29,17.20
2010,07,25,09,30,17.20
2010,07,25,09,31,17.20
2010,07,25,09,32,17.30
2010,07,25,09,33,17.30
2010,07,25,09,34,17.30
2010,07,25,09,35,17.30
2010,07,25,09,36,17.30
2010,07,25,09,37,17.20
2010,07,25,09,38,17.20
2010,07,25,09,39,17.10
2010,07,25,09,40,17.10
2010,07,25,09,41,17.00
2010,07,25,09,42,16.90
2010,07,25,09,43,16.90
2010,07,25,09,44,16.80
2010,07,25,09,45,16.70
2010,07,25,09,46,16.70
2010,07,25,09,47,16.70
2010,07,25,09,48,16.70
2010,07,25,09,49,16.70
2010,07,25,09,50,16.70
2010,07,25,09,51,16.80
2010,07,25,09,52,16.80
2010,07,25,09,53,16.80
2010,07,25,09,54,16.80
2010,07,25,09,55,16.80
2010,07,25,09,56,16.80
2010,07,25,09,57,16.80
2010,07,25,09,58,16.80
2010,07,25,09,59,16.80
2010,07,25,10,00,16.80
2010,07,25,10,01,16.80
2010,07,25,10,02,16.80
2010,07,25,10,03,16.80
2010,07,25,10,04,16.80
2010,07,25,10,05,16.80
2010,07,25,10,06,16.80
2010,07,25,10,07,16.80
2010,07,25,10,08,16.80
2010,07,25,10,09,16.80
2010,07,25,10,10,16.80
2010,07,25,10,11,16.80
2010,07,25,10,12,16.80
2010,07,25,10,13,16.90
2010,07,25,10,14,16.90
2010,07,25,10,15,16.90
2010,07,25,10,16,16.90
2010,07,25,10,17,17.00
2010,07,25,10,18,17.00
2010,07,25,10,19,17.00
2010,07,25,10,20,17.10
2010,07,25,10,21,17.20
2010,07,25,10,22,17.30
2010,07,25,10,23,17.30
2010,07,25,10,24,17.30
2010,07,25,10,25,17.30
2010,07,25,10,26,17.30
2010,07,25,10,27,17.30
2010,07,25,10,28,17.30
2010,07,25,10,29,17.30
2010,07,25,10,30,17.30
2010,07,25,10,31,17.30
2010,07,25,10,32,17.30
2010,07,25,10,33,17.20
2010,07,25,10,34,17.20
2010,07,25,10,35,17.10
2010,07,25,10,36,17.10
2010,07,25,10,37,17.00
2010,07,25,10,38,16.90
2010,07,25,10,39,16.90
2010,07,25,10,40,16.90
2010,07,25,10,41,16.90
2010,07,25,10,42,16.90
2010,07,25,10,43,16.80
2010,07,25,10,44,16.80
2010,07,25,10,45,16.80
2010,07,25,10,46,16.80
2010,07,25,10,47,16.80
2010,07,25,10,48,16.80
2010,07,25,10,49,16.80
2010,07,25,10,50,16.80
2010,07,25,10,51,16.80
2010,07,25,10,52,16.70
2010,07,25,10,53,16.70
2010,07,25,10,54,16.70
2010,07,25,10,55,16.80
2010,07,25,10,56,16.80
2010,07,25,10,57,16.70
2010,07,25,10,58,16.70
2010,07,25,10,59,16.70
2010,07,25,11,00,16.80
2010,07,25,11,01,16.90
2010,07,25,11,02,16.90
2010,07,25,11,03,17.00
2010,07,25,11,04,17.00
2010,07,25,11,05,17.00
2010,07,25,11,06,17.00
2010,07,25,11,07,17.00
2010,07,25,11,08,17.10
2010,07,25,11,09,17.10
2010,07,25,11,10,17.20
2010,07,25,11,11,17.20
2010,07,25,11,12,17.20
2010,07,25,11,13,17.20
2010,07,25,11,14,17.10
2010,07,25,11,15,17.10
2010,07,25,11,16,17.10
2010,07,25,11,17,17.20
2010,07,25,11,18,17.20
2010,07,25,11,19,17.10
2010,07,25,11,20,17.10
2010,07,25,11,21,17.00
2010,07,25,11,22,17.00
2010,07,25,11,23,17.00
2010,07,25,11,24,17.00
2010,07,25,11,25,17.00
2010,07,25,11,26,17.10
2010,07,25,11,27,17.10
2010,07,25,11,28,17.10
2010,07,25,11,29,17.10
2010,07,25,11,30,17.10
2010,07,25,11,31,17.00
2010,07,25,11,32,16.90
2010,07,25,11,33,16.90
2010,07,25,11,34,16.90
2010,07,25,11,35,16.90
2010,07,25,11,36,16.90
2010,07,25,11,37,17.00
2010,07,25,11,38,17.00
2010,07,25,11,39,17.10
2010,07,25,11,40,17.10
2010,07,25,11,41,17.10
2010,07,25,11,42,17.10
2010,07,25,11,43,17.10
2010,07,25,11,44,17.10
2010,07,25,11,45,17.20
2010,07,25,11,46,17.20
2010,07,25,11,47,17.10
2010,07,25,11,48,17.00
2010,07,25,11,49,17.00
2010,07,25,11,50,17.10
2010,07,25,11,51,17.10
2010,07,25,11,52,17.20
2010,07,25,11,53,17.30
2010,07,25,11,54,17.40
2010,07,25,11,55,17.50
2010,07,25,11,56,17.50
2010,07,25,11,57,17.60
2010,07,25,11,58,17.60
2010,07,25,11,59,17.70
2010,07,25,12,00,17.70
2010,07,25,12,01,17.70
2010,07,25,12,02,17.60
2010,07,25,12,03,17.60
2010,07,25,12,04,17.60
2010,07,25,12,05,17.50
2010,07,25,12,06,17.40
2010,07,25,12,07,17.30
2010,07,25,12,08,17.20
2010,07,25,12,09,17.10
2010,07,25,12,10,16.90
2010,07,25,12,11,16.70
2010,07,25,12,12,16.60
2010,07,25,12,13,16.60
2010,07,25,12,14,16.60
2010,07,25,12,15,16.70
2010,07,25,12,16,16.80
2010,07,25,12,17,16.80
2010,07,25,12,18,16.90
2010,07,25,12,19,16.90
2010,07,25,12,20,17.00
2010,07,25,12,21,17.00
2010,07,25,12,22,17.10
2010,07,25,12,23,17.20
2010,07,25,12,24,17.20
2010,07,25,12,25,17.20
2010,07,25,12,26,17.20
2010,07,25,12,27,17.30
2010,07,25,12,28,17.30
2010,07,25,12,29,17.30
2010,07,25,12,30,17.30
2010,07,25,12,31,17.30
2010,07,25,12,32,17.30
2010,07,25,12,33,17.20
2010,07,25,12,34,17.20
2010,07,25,12,35,17.20
2010,07,25,12,36,17.30
2010,07,25,12,37,17.30
2010,07,25,12,38,17.30
2010,07,25,12,39,17.30
2010,07,25,12,40,17.20
2010,07,25,12,41,17.20
2010,07,25,12,42,17.30
2010,07,25,12,43,17.40
2010,07,25,12,44,17.60
2010,07,25,12,45,17.70
2010,07,25,12,46,17.90
2010,07,25,12,47,18.10
2010,07,25,12,48,18.10
2010,07,25,12,49,18.20
2010,07,25,12,50,18.20
2010,07,25,12,51,18.20
2010,07,25,12,52,18.30
2010,07,25,12,53,18.40
2010,07,25,12,54,18.40
2010,07,25,12,55,18.50
2010,07,25,12,56,18.40
2010,07,25,12,57,18.30
2010,07,25,12,58,18.20
2010,07,25,12,59,18.10
2010,07,25,13,00,18.10
2010,07,25,13,01,18.10
2010,07,25,13,02,18.10
2010,07,25,13,03,18.00
2010,07,25,13,04,18.00
2010,07,25,13,05,18.00
2010,07,25,13,06,17.90
2010,07,25,13,07,17.90
2010,07,25,13,08,17.90
2010,07,25,13,09,17.90
2010,07,25,13,10,17.90
2010,07,25,13,11,18.10
2010,07,25,13,12,18.10
2010,07,25,13,13,18.20
2010,07,25,13,14,18.20
2010,07,25,13,15,18.20
2010,07,25,13,16,18.20
2010,07,25,13,17,18.30
2010,07,25,13,18,18.40
2010,07,25,13,19,18.50
2010,07,25,13,20,18.50
2010,07,25,13,21,18.60
2010,07,25,13,22,18.70
2010,07,25,13,23,18.70
2010,07,25,13,24,18.80
2010,07,25,13,25,18.90
2010,07,25,13,26,19.00
2010,07,25,13,27,19.10
2010,07,25,13,28,19.20
2010,07,25,13,29,19.30
2010,07,25,13,30,19.40
2010,07,25,13,31,19.60
2010,07,25,13,32,19.70
2010,07,25,13,33,19.80
2010,07,25,13,34,19.90
2010,07,25,13,35,20.00
2010,07,25,13,36,20.10
2010,07,25,13,37,20.20
2010,07,25,13,38,20.30
2010,07,25,13,39,20.30
2010,07,25,13,40,20.30
2010,07,25,13,41,20.40
2010,07,25,13,42,20.40
2010,07,25,13,43,20.40
2010,07,25,13,44,20.50
2010,07,25,13,45,20.40
2010,07,25,13,46,20.40
2010,07,25,13,47,20.40
2010,07,25,13,48,20.50
2010,07,25,13,49,20.50
2010,07,25,13,50,20.50
2010,07,25,13,51,20.60
2010,07,25,13,52,20.60
2010,07,25,13,53,20.50
2010,07,25,13,54,20.30
2010,07,25,13,55,20.20
2010,07,25,13,56,20.20
2010,07,25,13,57,20.20
2010,07,25,13,58,20.30
2010,07,25,13,59,20.40
2010,07,25,14,00,20.50
2010,07,25,14,01,20.50
2010,07,25,14,02,20.60
2010,07,25,14,03,20.70
2010,07,25,14,04,20.80
2010,07,25,14,05,21.00
2010,07,25,14,06,21.10
2010,07,25,14,07,21.30
2010,07,25,14,08,21.40
2010,07,25,14,09,21.40
2010,07,25,14,10,21.40
2010,07,25,14,11,21.40
2010,07,25,14,12,21.40
2010,07,25,14,13,21.40
2010,07,25,14,14,21.40
2010,07,25,14,15,21.40
2010,07,25,14,16,21.40
2010,07,25,14,17,21.50
2010,07,25,14,18,21.60
2010,07,25,14,19,21.70
2010,07,25,14,20,21.80
2010,07,25,14,21,21.80
2010,07,25,14,22,21.80
2010,07,25,14,23,21.80
2010,07,25,14,24,21.80
2010,07,25,14,25,21.80
2010,07,25,14,26,21.80
2010,07,25,14,27,21.80
2010,07,25,14,28,21.80
2010,07,25,14,29,21.80
2010,07,25,14,30,21.80
2010,07,25,14,31,21.80
2010,07,25,14,32,21.80
2010,07,25,14,33,21.80
2010,07,25,14,34,21.70
2010,07,25,14,35,21.80
2010,07,25,14,36,21.80
2010,07,25,14,37,21.70
2010,07,25,14,38,21.70
2010,07,25,14,39,21.70
2010,07,25,14,40,21.70
2010,07,25,14,41,21.80
2010,07,25,14,42,21.80
2010,07,25,14,43,21.70
2010,07,25,14,44,21.70
2010,07,25,14,45,21.60
2010,07,25,14,46,21.60
2010,07,25,14,47,21.50
2010,07,25,14,48,21.40
2010,07,25,14,49,21.40
2010,07,25,14,50,21.40
2010,07,25,14,51,21.40
2010,07,25,14,52,21.50
2010,07,25,14,53,21.50
2010,07,25,14,54,21.60
2010,07,25,14,55,21.50
2010,07,25,14,56,21.50
2010,07,25,14,57,21.60
2010,07,25,14,58,21.60
2010,07,25,14,59,21.60
2010,07,25,15,00,21.60
2010,07,25,15,01,21.60
2010,07,25,15,02,21.60
2010,07,25,15,03,21.60
2010,07,25,15,04,21.60
2010,07,25,15,05,21.60
2010,07,25,15,06,21.60
2010,07,25,15,07,21.60
2010,07,25,15,08,21.70
2010,07,25,15,09,21.70
2010,07,25,15,10,21.70
2010,07,25,15,11,21.80
2010,07,25,15,12,21.80
2010,07,25,15,13,21.80
2010,07,25,15,14,21.90
2010,07,25,15,15,21.90
2010,07,25,15,16,22.00
2010,07,25,15,17,22.00
2010,07,25,15,18,22.10
2010,07,25,15,19,22.10
2010,07,25,15,20,22.20
2010,07,25,15,21,22.20
2010,07,25,15,22,22.20
2010,07,25,15,23,22.30
2010,07,25,15,24,22.30
2010,07,25,15,25,22.40
2010,07,25,15,26,22.40
2010,07,25,15,27,22.50
2010,07,25,15,28,22.50
2010,07,25,15,29,22.50
2010,07,25,15,30,22.50
2010,07,25,15,31,22.60
2010,07,25,15,32,22.60
2010,07,25,15,33,22.60
2010,07,25,15,34,22.70
2010,07,25,15,35,22.80
2010,07,25,15,36,22.80
2010,07,25,15,37,22.90
2010,07,25,15,38,23.00
2010,07,25,15,39,23.10
2010,07,25,15,40,23.20
2010,07,25,15,41,23.20
2010,07,25,15,42,23.20
2010,07,25,15,43,23.30
2010,07,25,15,44,23.50
2010,07,25,15,45,23.70
2010,07,25,15,46,23.90
2010,07,25,15,47,24.00
2010,07,25,15,48,24.30
2010,07,25,15,49,24.50
2010,07,25,15,50,24.80
2010,07,25,15,51,24.90
2010,07,25,15,52,24.90
2010,07,25,15,53,24.80
2010,07,25,15,54,24.80
2010,07,25,15,55,24.60
2010,07,25,15,56,24.50
2010,07,25,15,57,24.40
2010,07,25,15,58,24.20
2010,07,25,15,59,24.10
2010,07,25,16,00,24.00
2010,07,25,16,01,23.90
2010,07,25,16,02,23.90
2010,07,25,16,03,23.90
2010,07,25,16,04,23.90
2010,07,25,16,05,23.80
2010,07,25,16,06,23.80
2010,07,25,16,07,23.70
2010,07,25,16,08,23.70
2010,07,25,16,09,23.70
2010,07,25,16,10,23.70
2010,07,25,16,11,23.80
2010,07,25,16,12,23.90
2010,07,25,16,13,24.10
2010,07,25,16,14,24.30
2010,07,25,16,15,24.50
2010,07,25,16,16,24.60
2010,07,25,16,17,24.70
2010,07,25,16,18,24.70
2010,07,25,16,19,24.70
2010,07,25,16,20,24.70
2010,07,25,16,21,24.70
2010,07,25,16,22,24.70
2010,07,25,16,23,24.70
2010,07,25,16,24,24.80
2010,07,25,16,25,24.80
2010,07,25,16,26,24.80
2010,07,25,16,27,24.70
2010,07,25,16,28,24.50
2010,07,25,16,29,24.40
2010,07,25,16,30,24.40
2010,07,25,16,31,24.50
2010,07,25,16,32,24.50
2010,07,25,16,33,24.40
2010,07,25,16,34,24.20
2010,07,25,16,35,24.20
2010,07,25,16,36,24.30
2010,07,25,16,37,24.30
2010,07,25,16,38,24.40
2010,07,25,16,39,24.50
2010,07,25,16,40,24.60
2010,07,25,16,41,24.70
2010,07,25,16,42,24.70
2010,07,25,16,43,24.60
2010,07,25,16,44,24.70
2010,07,25,16,45,24.70
2010,07,25,16,46,24.60
2010,07,25,16,47,24.50
2010,07,25,16,48,24.50
2010,07,25,16,49,24.60
2010,07,25,16,50,24.60
2010,07,25,16,51,24.70
2010,07,25,16,52,24.70
2010,07,25,16,53,24.80
2010,07,25,16,54,24.80
2010,07,25,16,55,24.90
2010,07,25,16,56,24.90
2010,07,25,16,57,24.90
2010,07,25,16,58,24.90
2010,07,25,16,59,24.80
2010,07,25,17,00,24.80
2010,07,25,17,01,24.70
2010,07,25,17,02,24.70
2010,07,25,17,03,24.70
2010,07,25,17,04,24.70
2010,07,25,17,05,24.60
2010,07,25,17,06,24.50
2010,07,25,17,07,24.40
2010,07,25,17,08,24.30
2010,07,25,17,09,24.30
2010,07,25,17,10,24.20
2010,07,25,17,11,24.20
2010,07,25,17,12,24.20
2010,07,25,17,13,24.20
2010,07,25,17,14,24.10
2010,07,25,17,15,23.90
2010,07,25,17,16,23.80
2010,07,25,17,17,23.80
2010,07,25,17,18,23.80
2010,07,25,17,19,23.80